Wind_Speed
67 69 69 70 71 73 72 70 69 68 68 66 62 59 58 56 55 53 50 45 38 32 30 29 31 30 27 25 22 19 19 19 20 18 14 13 13 12 11 9 7 6 5 4 4 5 6 6 7 9 11 12 12 11 12 13 15 17 18 18 18 19 19 19 19 20 21 23 25 27 30 31 31 31 31 31 32 32 33 35 36 36 36 36 36 36
68 69 71 73 74 75 73 71 71 70 70 69 64 60 58 56 56 55 53 50 42 34 31 30 32 32 30 29 25 22 23 23 22 20 15 13 14 14 12 11 9 8 7 6 4 5 4 5 5 7 9 10 11 11 11 12 13 15 17 18 18 19 19 19 19 20 20 21 23 25 28 29 30 30 30 30 30 31 32 33 34 35 35 34 33 33
69 71 74 75 75 75 74 72 72 71 72 72 67 62 59 58 57 56 54 53 47 39 34 32 34 34 33 32 28 26 27 26 24 23 19 16 15 15 14 12 10 10 9 7 4 4 3 3 3 5 7 8 9 10 11 12 12 13 15 17 18 18 19 19 19 19 19 20 21 24 26 27 29 30 29 29 29 29 30 31 32 33 33 32 32 31
72 74 77 77 75 75 75 74 73 72 72 74 72 67 63 61 59 57 56 54 50 43 38 35 35 36 36 35 33 31 30 28 27 26 23 19 17 16 14 12 12 12 11 9 5 4 3 2 2 3 5 7 7 8 10 11 11 12 13 15 17 18 18 19 19 19 19 19 20 22 24 25 27 28 29 28 28 28 29 29 30 30 31 31 31 31
76 78 78 76 76 76 76 76 75 74 74 76 77 73 67 64 62 59 58 55 52 46 41 38 38 37 38 38 37 34 30 30 31 30 26 21 19 18 15 13 12 12 12 10 7 4 4 3 2 1 3 4 6 7 8 10 11 12 12 13 15 16 17 18 18 19 19 19 20 21 22 23 25 26 27 27 27 28 28 28 28 28 29 29 29 29
78 78 76 76 77 77 78 77 77 76 76 77 79 77 72 68 65 62 61 58 54 48 43 42 42 41 40 39 38 37 33 32 33 32 28 24 21 20 17 15 13 13 12 11 8 6 5 4 3 1 1 3 4 5 7 8 10 11 12 12 13 14 15 16 17 18 18 19 19 20 20 21 22 24 25 26 26 27 28 28 28 27 27 27 27 27
79 77 77 77 78 78 78 78 79 78 78 79 81 80 77 74 70 66 64 61 56 51 46 44 45 45 42 40 39 38 36 34 33 32 30 26 23 21 19 16 14 14 13 12 10 8 6 6 5 3 2 2 3 4 6 7 8 10 12 12 12 12 13 15 16 17 17 18 18 19 19 20 20 21 22 24 25 26 27 27 27 27 27 26 26 26
80 79 78 78 79 79 78 78 80 80 80 81 82 82 82 80 76 70 67 65 60 55 50 46 46 46 44 41 41 39 35 33 33 32 30 28 25 24 22 19 17 15 13 13 12 10 8 7 7 5 4 3 2 3 4 6 7 9 11 12 12 12 12 13 14 15 16 17 17 18 18 18 19 19 20 21 23 25 26 26 26 26 26 25 25 24
81 81 80 80 80 80 79 79 82 83 83 83 84 85 85 84 79 72 70 69 64 58 54 51 49 49 46 43 42 40 36 35 34 32 31 29 28 28 25 21 20 18 14 13 14 12 10 9 8 7 6 5 4 2 3 5 6 7 9 10 11 11 12 12 13 14 15 15 16 17 17 17 18 18 19 20 21 23 24 24 24 24 24 24 23 23
82 82 82 81 81 81 83 83 83 85 87 86 85 86 85 84 80 75 72 71 67 61 58 55 51 51 49 44 42 41 38 36 35 33 33 32 31 31 28 24 22 20 16 14 15 13 10 9 9 8 8 6 5 4 2 3 5 6 8 9 10 10 11 12 13 13 14 14 15 17 17 17 17 18 18 19 20 21 22 22 23 23 23 23 22 22
83 84 82 81 82 83 85 85 84 86 89 87 85 85 85 84 82 78 74 72 68 63 60 57 53 51 51 47 43 40 39 39 38 36 35 35 34 33 29 25 23 21 18 16 15 13 11 10 10 9 8 7 5 4 3 0 2 4 6 7 8 9 9 10 11 12 13 14 14 16 17 17 18 18 18 19 19 19 19 20 21 21 22 22 22 22
85 85 83 84 85 86 86 86 85 87 88 87 85 84 85 85 84 81 78 75 72 67 63 60 57 53 52 50 45 41 40 40 40 38 37 36 36 34 29 25 23 21 20 19 17 14 12 11 10 10 9 8 7 6 4 3 1 2 4 6 6 7 8 8 9 10 11 12 13 14 15 16 17 17 18 18 18 18 18 18 19 19 20 21 21 21
85 85 86 87 88 88 87 88 87 86 86 86 85 84 84 86 86 85 84 81 77 73 67 64 61 57 54 52 48 45 42 41 42 40 37 37 36 34 31 27 24 23 22 22 21 17 14 12 12 11 11 9 9 8 6 5 3 2 3 5 6 6 6 6 7 8 9 10 11 11 12 13 14 15 16 17 17 18 18 18 18 18 19 19 20 21
84 86 88 88 89 89 89 88 87 85 83 84 86 85 85 86 86 85 87 86 82 77 71 66 63 60 58 55 52 50 45 42 42 39 36 37 36 34 31 28 25 25 25 25 24 21 18 16 15 14 13 12 11 10 9 7 5 4 4 4 5 5 4 5 5 6 7 8 9 10 10 11 12 13 14 15 16 16 17 17 18 18 18 18 19 20
84 86 87 88 88 89 89 89 88 86 84 84 87 88 88 88 87 86 87 88 86 82 75 69 65 62 62 59 56 56 51 45 43 39 35 37 37 35 32 27 25 27 28 27 26 24 22 20 19 17 15 14 13 12 11 9 7 6 5 5 5 5 3 3 4 5 6 6 7 8 9 10 11 12 13 14 14 15 16 16 17 17 18 18 18 19
83 85 87 88 89 90 90 90 89 88 86 86 87 89 90 89 89 88 89 90 89 87 81 73 69 67 64 61 61 59 55 50 45 40 37 39 40 39 34 28 28 30 30 29 28 26 25 22 20 17 15 14 15 14 12 11 9 8 6 6 6 6 4 2 1 3 4 5 5 6 8 9 10 12 13 13 14 14 15 16 17 17 17 18 18 18
83 85 87 88 89 91 92 91 90 89 88 86 86 88 91 92 91 90 91 92 89 87 83 76 72 70 66 63 62 59 56 55 49 43 42 42 42 41 35 30 30 32 30 30 30 29 28 25 21 19 17 15 15 15 14 13 12 10 8 7 8 8 7 4 2 1 2 3 3 4 6 8 9 10 12 13 13 14 15 16 17 18 17 18 18 18
83 86 88 89 90 92 93 92 90 89 88 87 86 88 92 94 93 91 91 92 89 86 85 82 75 72 69 66 65 61 58 58 55 48 45 45 44 42 38 33 33 34 33 32 33 32 31 29 25 22 21 18 17 17 17 15 15 14 12 10 9 10 9 7 5 3 3 3 3 2 3 5 7 9 10 12 13 13 14 15 16 18 18 19 19 19
84 86 88 90 92 93 93 92 91 89 88 88 89 90 92 94 95 94 91 91 90 86 86 86 81 74 72 69 67 64 60 59 60 56 49 46 46 44 41 38 38 38 37 37 38 37 33 31 29 26 23 21 19 19 20 19 17 16 15 13 12 11 11 10 9 6 4 4 4 3 1 3 5 7 9 10 11 12 13 13 15 16 18 19 20 21
84 85 88 91 92 92 93 93 91 91 90 89 91 90 91 94 97 97 93 91 91 88 87 89 86 78 74 71 68 66 63 60 61 59 53 47 46 45 43 41 41 41 40 40 41 40 37 34 32 29 26 24 22 21 22 21 18 16 16 16 15 14 13 12 12 11 8 6 5 4 3 1 3 5 7 8 9 11 12 13 13 14 17 18 20 21
84 86 88 90 92 92 93 93 93 92 92 92 92 91 91 94 96 97 95 93 92 90 88 89 88 83 79 74 71 69 67 62 57 55 52 46 43 45 46 44 43 41 41 41 42 42 41 39 36 32 28 27 25 24 23 22 18 17 17 17 16 16 16 16 14 14 12 10 9 8 7 5 2 2 4 6 7 9 11 13 13 14 15 17 18 20
84 86 88 90 92 94 95 94 94 94 94 95 94 93 94 95 95 95 96 95 93 92 90 88 88 87 83 77 74 72 70 65 57 51 48 44 39 40 46 48 46 43 41 42 42 43 43 41 39 35 32 30 28 26 25 23 20 18 18 17 16 16 18 18 17 16 15 14 14 13 12 10 8 4 1 3 6 7 9 12 14 15 16 17 18 19
84 86 88 89 93 95 96 95 95 95 96 96 96 96 96 96 94 93 94 96 95 94 92 91 89 88 86 80 77 76 74 69 62 52 46 45 43 41 45 48 47 45 45 45 44 42 43 43 41 38 35 33 32 30 28 26 24 22 20 19 18 16 17 19 19 19 18 17 17 16 14 13 13 10 5 2 5 7 9 11 13 15 17 18 19 19
84 86 88 90 93 96 97 96 96 96 97 98 99 98 96 95 94 93 93 96 98 96 94 93 91 89 88 85 81 80 79 75 68 59 50 49 51 50 48 45 45 48 50 50 49 45 43 44 42 38 36 36 35 33 31 30 28 24 22 22 22 19 18 19 18 18 19 18 18 17 16 15 15 12 7 4 4 6 8 10 12 14 16 18 20 20
84 85 88 91 94 96 98 98 97 97 99 100 100 99 96 94 93 93 94 96 99 98 96 95 93 91 91 90 88 86 84 80 76 70 62 55 56 59 55 46 45 53 56 54 51 48 44 44 43 40 39 40 39 36 34 32 30 26 25 26 25 23 23 21 19 17 17 18 19 19 19 18 16 13 10 7 7 7 8 9 11 13 15 17 19 20
84 85 88 91 93 95 97 98 98 98 99 100 100 99 97 95 94 94 94 96 97 99 98 96 94 93 93 93 93 91 88 85 82 80 75 66 60 63 64 56 51 56 58 53 51 50 44 40 41 43 44 44 42 40 37 34 32 31 31 30 27 27 28 25 22 21 21 21 22 22 20 18 16 15 14 12 11 10 9 8 10 14 16 17 18 19
85 86 88 91 93 95 97 98 98 99 99 100 100 99 98 97 96 94 94 95 95 97 99 98 96 94 93 94 95 94 92 90 88 86 84 79 71 67 68 67 60 57 57 52 50 51 47 41 42 45 47 48 46 43 38 33 34 36 35 32 30 31 31 28 25 25 26 26 25 23 21 18 16 17 19 19 17 15 12 10 10 13 17 18 18 18
86 87 88 90 93 94 96 97 99 100 100 100 100 99 99 98 97 96 95 95 95 95 97 98 98 96 94 94 96 96 96 94 93 91 89 87 82 76 72 72 68 63 61 57 52 50 47 46 46 47 48 50 50 46 40 35 36 39 39 35 34 34 32 30 28 27 27 26 25 23 22 21 19 16 17 18 17 17 16 14 13 14 16 18 20 20
87 88 88 90 92 94 95 97 99 100 101 101 101 100 100 100 98 98 98 97 96 95 95 96 97 97 97 96 96 97 97 96 95 94 93 90 89 85 81 77 74 71 68 66 63 58 54 53 54 53 51 51 50 46 43 39 38 40 42 40 40 37 33 31 29 27 25 25 24 22 22 24 22 17 15 15 13 13 16 17 16 16 16 19 22 23
88 88 89 90 92 93 95 96 98 99 100 102 102 101 100 100 100 100 100 99 98 96 95 94 95 97 98 98 97 97 97 97 96 95 94 93 91 90 87 84 82 79 76 73 71 70 67 64 63 63 60 59 56 52 49 46 41 41 43 44 43 41 35 31 29 28 26 24 23 22 24 27 25 20 17 14 12 13 16 17 18 18 18 19 22 24
87 88 89 90 91 93 93 95 96 98 100 101 102 102 101 101 101 101 101 101 99 97 96 95 94 95 96 97 97 97 96 97 98 96 95 94 94 93 91 89 87 85 83 79 75 74 74 73 72 72 71 69 67 64 61 57 48 44 46 46 44 41 38 35 30 28 27 26 25 26 28 29 27 23 20 17 16 17 20 22 22 20 20 21 22 24
86 87 88 90 91 92 92 93 94 97 99 101 103 103 103 102 103 103 103 102 101 99 98 97 95 94 95 95 96 96 96 96 97 97 96 96 96 95 94 93 90 88 86 84 80 76 75 75 75 77 77 76 75 72 70 65 56 49 49 51 47 41 37 36 30 27 29 30 30 33 35 32 29 27 24 22 21 20 21 24 23 19 20 24 26 28
85 86 87 89 91 92 92 92 93 95 99 101 103 105 104 104 104 104 104 104 103 102 101 99 98 97 96 95 95 96 97 97 97 97 97 98 98 98 97 95 94 91 89 87 85 81 78 77 76 78 80 80 79 77 75 70 62 55 53 55 54 46 39 36 32 30 33 33 32 36 39 36 32 30 28 28 26 24 23 23 21 18 18 22 27 33
83 84 86 89 91 91 92 92 93 95 98 102 104 104 104 105 105 106 106 106 106 105 103 101 100 99 98 98 97 97 98 98 99 98 97 98 98 98 98 97 96 95 93 92 90 88 84 81 79 79 80 82 82 81 79 75 67 60 57 57 58 55 48 43 40 39 41 40 39 40 41 38 34 32 31 31 28 25 23 22 19 18 21 24 28 33
82 83 85 88 89 89 90 92 93 95 98 101 103 104 104 105 106 107 108 108 107 107 105 104 102 101 100 100 99 98 98 99 100 100 98 97 98 98 98 98 98 97 97 95 95 93 91 89 86 82 81 83 84 83 82 79 72 66 61 59 60 59 56 52 49 48 48 49 49 47 43 38 33 31 31 31 27 24 25 24 22 23 28 32 32 31
81 82 84 86 87 88 89 91 93 95 97 99 101 104 105 105 106 107 108 109 109 108 107 106 105 104 103 102 101 100 100 100 101 101 99 97 97 97 98 98 98 99 99 98 97 97 96 94 93 89 84 83 84 84 84 82 77 71 67 63 62 62 60 58 55 53 53 55 55 53 48 41 35 31 30 28 25 23 25 27 26 26 30 34 34 29
80 81 82 84 86 87 88 90 92 94 96 97 100 103 105 106 107 107 109 110 110 110 109 108 107 106 104 103 102 102 102 102 102 102 101 98 97 97 98 98 99 99 100 101 100 100 99 98 97 95 91 87 85 85 85 84 81 77 73 70 67 65 64 63 61 58 58 59 60 60 55 49 45 41 38 37 35 32 30 28 25 25 27 30 31 29
81 81 82 83 85 87 89 91 92 93 95 97 99 102 105 106 107 108 108 110 111 111 111 110 109 107 106 105 103 103 103 102 102 102 102 100 99 99 99 99 100 100 101 102 103 102 102 101 100 99 96 93 89 87 87 87 85 82 79 76 73 71 69 68 67 65 63 63 64 65 63 59 56 53 52 52 50 47 43 36 29 26 26 27 28 30
83 83 83 83 85 87 89 91 92 92 94 95 97 100 103 106 108 108 108 109 111 111 111 111 110 109 108 106 105 104 103 102 101 101 101 102 102 102 101 101 102 103 103 104 104 104 104 103 102 101 99 96 94 92 90 89 88 86 83 81 79 77 75 73 73 72 69 68 68 69 68 67 66 64 63 62 60 57 54 49 44 40 39 38 38 40
85 85 85 85 86 87 88 90 91 91 92 94 95 98 101 104 107 108 108 108 109 110 111 111 111 110 110 108 106 105 103 102 102 101 102 103 104 105 105 104 104 105 106 107 107 106 105 104 103 102 100 99 97 96 95 94 92 91 89 87 84 82 80 78 77 77 76 74 73 73 73 72 73 72 71 69 66 64 61 60 58 57 57 58 58 58
83 86 87 87 87 88 88 89 89 90 91 93 94 96 99 102 105 106 107 108 108 108 110 112 112 112 112 110 108 106 105 103 103 103 103 105 107 108 108 108 107 107 107 107 108 107 106 105 103 102 102 101 99 99 98 99 98 96 95 93 92 90 87 85 83 83 82 81 80 79 78 77 77 77 77 76 73 70 68 66 65 65 65 66 66 66
78 83 87 89 89 89 89 89 89 89 90 91 93 95 97 99 102 105 106 107 107 108 109 111 112 113 112 109 105 106 107 106 104 105 106 107 108 109 110 110 110 109 109 108 108 108 107 106 105 104 103 102 102 101 100 100 100 100 99 98 97 96 94 92 90 89 89 88 87 85 84 82 81 80 81 81 80 77 75 73 71 69 69 69 69 68
70 76 82 87 90 91 91 90 89 89 90 90 91 93 94 96 100 103 104 105 106 108 109 110 111 112 113 110 106 106 109 109 106 105 109 112 113 111 111 112 112 112 111 110 109 109 108 107 107 106 105 104 103 103 102 102 101 101 101 101 100 99 98 96 94 94 94 94 94 93 92 90 88 86 85 85 85 84 82 80 77 75 73 73 72 71
63 68 74 80 86 90 92 92 91 90 91 91 91 92 92 94 97 100 102 104 106 107 108 108 110 111 113 113 112 112 114 114 112 111 113 117 117 115 114 113 113 113 113 111 110 110 109 109 108 108 107 106 105 105 104 104 104 103 103 102 102 101 99 98 97 97 97 98 98 98 98 97 95 93 91 90 90 89 88 87 84 82 80 78 77 75
56 61 67 72 78 84 89 92 92 92 92 92 92 92 92 93 94 96 98 101 104 105 107 108 108 110 112 113 115 116 117 117 117 117 117 117 117 116 116 116 114 114 114 112 111 111 110 110 110 110 109 108 107 107 107 106 106 105 104 104 103 103 102 100 100 99 100 100 100 100 100 100 99 97 94 93 93 93 92 92 90 87 85 82 80 78
51 55 60 65 71 76 82 88 92 94 94 93 93 93 93 94 94 94 96 97 100 103 105 107 108 109 111 112 114 116 118 119 120 120 120 119 118 117 116 116 116 116 115 115 114 113 112 112 111 111 111 110 109 109 109 109 108 107 106 105 104 104 103 103 103 102 102 103 103 102 101 101 101 99 97 95 94 94 93 93 91 90 87 85 83 81
47 50 54 58 63 68 73 79 85 90 93 94 95 95 95 95 95 95 95 96 98 100 102 105 107 108 109 110 111 112 114 117 119 120 121 122 122 120 118 117 118 118 118 117 117 116 114 113 112 112 111 111 111 111 111 110 109 109 108 107 107 106 105 105 104 104 105 105 104 104 103 103 102 101 99 98 97 95 94 93 92 90 89 87 85 84
41 46 49 52 56 60 66 71 76 81 87 91 94 96 97 97 97 97 97 97 98 99 100 102 104 106 108 109 110 111 113 116 119 122 123 123 123 123 121 120 120 121 121 121 120 119 117 115 113 112 112 112 112 112 112 111 111 110 110 110 109 109 108 107 107 106 106 106 106 105 105 104 103 103 101 100 99 97 96 94 93 91 90 89 87 86
36 40 44 48 52 55 59 64 68 73 78 83 88 92 95 97 98 98 98 99 99 100 101 102 102 104 106 108 110 112 114 118 121 123 123 123 122 123 123 123 122 122 123 123 122 121 119 117 116 114 114 113 113 112 112 112 111 112 112 112 112 111 111 110 109 108 107 107 107 107 106 105 105 104 103 101 100 99 98 97 95 93 91 90 89 89
31 34 38 43 47 51 54 58 62 66 70 75 80 85 89 93 96 98 99 100 100 101 101 102 102 103 104 106 108 111 113 117 120 121 121 121 122 123 124 125 124 124 123 123 123 122 122 120 119 118 117 117 115 114 113 113 112 112 113 113 113 113 113 112 111 111 110 109 108 107 107 106 106 105 105 103 102 101 100 99 99 97 96 94 92 91
30 31 34 37 41 45 49 53 57 60 64 68 73 77 81 86 90 94 97 100 101 102 102 102 103 103 103 104 106 108 111 115 118 119 119 120 121 123 124 125 125 125 124 124 123 123 123 123 123 123 122 121 119 118 116 115 114 114 114 114 114 114 114 114 113 112 112 111 110 108 107 107 106 106 106 105 105 104 103 102 102 101 101 99 97 96
Wind_Direction
208 209 208 207 205 204 203 202 198 195 192 193 195 196 197 199 199 198 195 192 190 190 192 195 197 197 199 198 197 205 211 216 221 220 220 224 224 221 221 228 235 249 279 311 348 7 19 34 47 57 55 47 44 39 33 33 33 35 38 42 46 49 53 55 56 57 56 54 53 53 54 54 54 54 54 54 56 58 59 61 61 61 62 64 66 68
208 209 209 208 206 205 204 202 200 196 194 194 195 197 197 198 200 200 198 195 194 194 194 197 200 199 198 195 195 203 208 215 221 218 218 221 223 225 224 228 232 243 263 283 320 346 2 20 32 54 61 55 47 42 38 36 35 35 37 40 43 46 50 52 55 57 57 55 53 54 54 54 54 54 54 54 56 58 59 61 62 62 62 62 64 66
209 210 211 209 207 205 204 203 201 198 196 196 195 196 196 196 201 202 199 197 196 195 194 200 204 201 199 196 198 206 209 213 220 220 221 219 217 223 224 228 234 240 251 263 288 319 332 356 15 42 63 63 52 46 43 41 40 39 37 38 41 44 46 49 52 55 57 56 54 54 54 54 54 54 53 52 54 57 60 61 63 64 63 63 63 64
210 211 211 210 207 206 204 203 202 200 198 197 197 197 195 196 199 202 201 198 196 194 193 201 205 203 201 197 199 206 209 213 218 221 223 217 213 219 221 223 231 239 243 247 258 284 300 313 348 24 55 67 59 47 45 46 46 45 41 39 40 42 44 46 49 52 55 55 54 54 54 54 54 54 53 51 51 54 58 60 63 65 65 65 64 64
211 211 210 209 208 206 205 203 203 202 199 198 199 198 196 196 198 201 201 198 195 193 194 199 202 202 201 197 199 205 208 214 216 218 220 214 213 220 222 219 224 235 240 239 240 247 264 273 280 358 47 68 62 46 44 47 49 52 51 45 42 42 42 44 46 48 51 54 54 54 54 53 54 54 54 52 50 51 54 57 59 62 64 64 64 64
211 211 210 209 209 207 205 204 203 203 201 200 199 199 197 197 198 201 200 196 194 194 195 200 200 199 200 198 200 204 207 213 215 216 217 213 214 222 223 219 221 228 233 234 229 223 236 252 247 240 81 79 65 43 37 41 47 54 57 54 48 44 43 43 44 46 49 52 53 54 54 53 53 54 54 54 52 50 52 54 56 58 61 62 63 63
211 211 210 210 209 208 206 205 205 204 203 202 200 199 199 199 198 199 199 196 195 196 196 200 200 199 200 201 200 202 207 214 216 217 216 212 216 222 221 220 224 225 225 228 224 212 218 235 236 222 182 129 84 49 30 29 37 48 57 60 55 50 46 44 45 45 46 49 52 54 54 54 54 54 54 54 53 52 51 52 53 55 58 60 61 61
210 210 211 210 210 209 207 206 206 205 204 203 201 199 200 202 200 198 199 198 198 200 197 197 199 197 199 201 200 200 206 214 217 217 215 215 218 221 220 220 223 222 219 221 217 209 212 222 226 221 201 173 131 70 28 17 21 34 49 59 60 56 51 47 46 47 46 47 49 51 53 54 54 54 53 53 53 52 52 52 52 53 56 58 60 61
209 210 211 210 210 209 208 208 207 206 206 204 202 201 201 203 201 197 199 201 202 203 201 197 197 196 197 198 199 200 205 212 215 214 214 217 219 220 220 219 218 217 214 211 209 207 210 216 218 219 212 189 161 117 41 10 8 17 32 49 57 57 54 51 49 49 48 46 46 47 49 51 52 53 53 52 51 52 53 53 53 53 54 56 58 60
210 210 210 211 210 209 209 209 208 207 207 205 203 202 202 204 203 199 201 204 204 205 205 201 198 198 199 198 198 200 204 211 214 213 212 215 217 218 218 216 215 215 210 205 205 206 209 216 215 215 217 203 175 151 107 6 356 2 12 30 48 53 52 51 50 50 50 48 46 44 44 46 47 48 49 49 50 51 52 53 53 53 54 55 56 58
210 209 209 211 212 212 211 209 208 209 208 206 204 203 203 204 204 203 204 206 207 207 207 204 201 200 201 201 200 201 205 210 213 214 213 213 214 216 216 214 214 215 213 208 207 207 208 217 218 214 218 215 196 177 159 140 342 348 353 7 30 44 48 48 48 48 47 47 47 44 42 42 42 42 44 46 47 48 50 51 52 53 54 55 55 55
210 209 208 210 212 213 212 210 210 210 209 206 205 204 204 204 205 205 207 209 209 210 209 205 201 200 200 200 201 203 207 211 212 213 214 213 213 215 215 212 213 217 219 216 212 211 213 222 222 216 217 219 212 203 190 191 245 322 332 342 3 28 43 45 44 44 43 44 44 44 42 41 40 39 39 40 42 44 45 45 47 49 51 53 54 54
211 209 209 209 211 212 212 211 211 211 210 208 206 205 205 205 206 206 208 210 210 210 209 205 202 200 198 197 198 201 205 209 210 211 213 213 213 214 213 209 211 218 221 220 216 213 215 223 223 216 217 221 219 216 207 203 215 244 291 315 335 3 30 41 42 40 39 40 41 42 43 41 40 39 38 37 37 39 40 40 40 42 45 47 50 51
212 211 210 210 211 212 212 211 211 211 210 209 208 206 206 207 207 208 209 211 210 209 208 205 203 200 198 197 197 200 203 205 207 207 211 215 214 213 212 207 211 219 219 217 217 215 213 218 220 212 211 218 223 221 213 206 210 221 246 277 304 331 3 25 33 36 35 35 38 41 41 41 41 40 39 37 35 36 37 36 36 36 38 39 42 46
213 212 212 211 211 213 213 212 210 209 210 210 209 208 207 207 208 209 211 212 211 209 208 205 204 202 199 198 200 203 205 206 204 201 206 216 215 212 211 208 214 222 220 215 217 219 218 219 223 220 213 214 219 222 215 207 207 213 225 250 273 293 321 358 10 18 24 29 34 39 42 41 40 39 39 38 35 35 34 33 34 33 32 32 33 36
214 214 213 213 212 213 214 213 211 209 209 210 210 209 209 209 209 210 211 212 211 210 209 206 205 204 201 198 201 207 209 207 203 197 200 211 213 210 208 207 215 223 222 217 217 221 223 222 226 231 233 224 219 223 222 215 213 213 218 235 251 261 269 286 336 348 359 10 22 34 40 42 40 36 35 34 33 32 31 31 31 30 29 29 27 28
214 214 214 214 214 214 214 214 212 210 209 210 210 210 210 210 210 210 212 212 211 211 211 208 206 207 204 201 202 207 210 209 206 200 200 207 210 208 205 204 214 221 223 220 218 221 224 223 224 231 239 235 223 222 225 225 224 219 217 228 241 248 251 246 229 254 308 328 351 16 32 40 41 36 32 31 29 27 27 27 27 26 25 25 24 24
214 214 214 214 215 215 215 214 213 211 210 210 211 211 212 211 211 211 212 212 210 211 211 210 208 208 207 204 205 207 211 212 212 207 205 207 209 209 206 205 213 221 223 221 220 220 220 221 224 227 232 232 226 222 223 225 227 226 225 231 242 251 256 256 246 234 250 275 292 330 26 39 42 39 35 31 28 26 23 23 22 22 20 20 20 20
214 214 214 215 215 215 215 214 214 212 211 211 212 212 212 213 212 212 212 212 211 210 211 211 210 208 208 207 207 209 212 215 216 212 208 208 210 212 211 210 215 220 221 220 220 219 217 218 221 224 227 227 224 224 224 225 228 231 233 235 240 250 261 268 269 265 254 255 268 285 348 39 40 39 36 33 30 26 21 19 19 17 16 15 15 15
215 215 215 215 216 216 216 215 214 213 212 212 213 214 213 214 214 213 212 211 211 211 212 213 211 209 208 208 208 210 213 217 218 215 212 211 212 214 214 214 218 222 222 223 224 222 219 218 219 221 226 226 224 225 226 226 229 232 235 239 240 242 247 257 268 275 275 269 273 288 307 1 41 36 28 25 24 20 13 13 15 14 13 11 9 10
216 216 216 216 216 217 217 215 214 213 213 212 213 214 215 216 215 214 213 212 211 211 212 213 212 210 208 208 207 210 214 217 217 215 213 214 217 220 219 217 220 223 224 226 228 227 224 222 221 222 226 229 227 228 227 226 229 233 236 241 244 246 245 245 252 266 277 280 276 278 285 294 309 29 22 9 7 6 3 4 7 9 11 9 5 5
216 216 216 216 216 217 217 216 214 213 213 214 213 214 215 216 216 215 215 214 213 212 213 213 213 211 208 207 207 210 214 216 215 213 211 212 217 221 222 221 220 222 226 227 228 230 230 228 226 224 227 231 230 230 228 225 229 235 237 240 244 250 254 254 255 263 272 283 286 282 279 279 274 254 277 341 341 349 354 357 358 0 4 6 4 2
217 217 216 216 217 217 217 217 216 214 214 215 214 214 215 216 216 215 215 216 215 214 213 212 213 211 208 206 208 211 215 216 214 212 210 212 215 217 221 223 222 221 226 229 229 230 233 233 230 226 228 234 233 232 231 229 228 232 236 240 242 246 254 258 260 264 268 277 288 288 274 265 263 250 232 280 320 334 344 348 350 351 354 356 357 359
217 217 217 217 217 218 218 217 217 215 215 215 215 215 215 216 216 216 216 216 216 216 214 213 213 212 209 207 209 212 216 217 215 213 211 213 217 218 218 219 219 220 224 228 229 230 232 233 232 231 232 235 234 232 233 232 232 233 236 241 245 250 255 256 256 260 263 269 278 280 270 264 265 264 257 276 311 323 332 340 344 345 347 346 346 351
217 217 217 217 217 218 218 218 217 217 216 216 216 215 215 215 216 217 217 217 217 217 216 215 214 213 211 210 211 213 216 217 217 216 213 213 216 218 216 213 215 219 223 226 226 226 230 231 231 234 237 237 235 232 230 231 233 234 234 236 241 249 256 257 258 259 260 262 264 266 267 268 272 274 273 282 305 315 321 335 342 342 342 340 338 341
218 217 217 217 217 218 218 218 218 218 218 217 217 216 215 215 216 217 218 219 218 218 217 216 215 215 214 213 213 215 217 218 219 220 218 215 216 218 217 213 214 216 219 222 222 222 225 229 230 234 238 238 237 235 230 227 228 231 233 233 234 242 250 255 259 261 260 259 258 261 265 266 266 265 260 264 286 302 310 324 332 332 333 332 331 333
218 218 218 218 218 218 218 218 218 219 219 219 218 217 216 216 216 217 218 220 220 219 219 218 217 216 216 216 216 217 219 220 221 222 221 219 218 219 217 214 215 216 215 217 220 220 221 224 227 230 234 235 234 232 230 225 221 223 229 231 231 236 242 248 255 260 262 261 258 261 265 261 256 254 248 251 268 281 288 302 317 323 325 324 324 324
217 217 217 218 218 218 218 218 218 218 219 219 219 218 217 217 216 216 218 219 220 220 220 219 219 218 218 218 218 218 219 221 222 223 223 222 221 221 219 217 217 218 216 216 217 216 216 219 220 221 225 230 231 229 229 227 221 218 220 223 227 231 235 239 246 254 260 258 255 259 265 260 252 249 246 250 262 266 267 277 298 315 320 318 315 313
217 217 216 217 218 219 218 218 218 218 219 219 219 218 218 218 217 217 218 219 219 220 220 220 220 219 219 219 220 220 220 222 223 224 224 224 223 223 223 222 220 220 220 219 217 214 212 213 214 212 215 222 226 225 227 228 226 221 217 218 225 229 228 231 238 248 256 256 256 262 266 258 250 248 252 257 263 263 262 270 283 297 309 312 309 306
217 217 216 216 217 218 219 219 219 219 219 219 220 219 219 219 219 218 218 219 219 220 220 220 221 221 220 220 221 222 222 223 224 224 225 225 225 225 225 226 225 224 224 223 221 219 216 215 215 214 215 219 223 225 225 226 227 224 219 218 224 227 224 223 232 243 250 254 255 255 255 253 250 251 252 251 255 263 269 276 281 286 293 302 306 304
217 217 217 217 217 217 218 219 219 219 219 219 220 220 219 220 220 219 219 219 220 220 220 220 221 221 222 222 222 223 224 225 225 226 226 226 226 226 226 226 227 227 226 226 224 222 221 221 220 219 219 222 226 229 230 230 229 227 222 219 223 228 224 220 227 239 245 247 246 242 241 243 245 248 247 240 242 251 257 265 274 282 286 292 298 297
217 218 218 218 217 217 217 218 219 220 220 220 220 220 219 220 220 220 220 220 220 220 220 220 220 221 222 222 222 223 223 225 226 227 227 227 226 226 226 227 227 228 228 227 226 224 222 223 223 222 221 222 225 228 231 232 230 227 223 220 222 228 225 217 220 233 237 237 239 239 238 238 238 240 239 236 237 243 249 256 264 276 285 288 292 292
217 217 218 218 218 217 217 217 218 220 220 220 220 220 219 219 220 221 221 220 220 221 221 220 220 221 221 221 222 222 223 224 225 226 227 228 227 227 227 227 227 228 228 228 227 225 223 223 224 224 223 222 224 226 229 231 228 225 224 222 222 225 220 209 206 216 223 226 230 235 238 239 239 239 238 236 237 244 251 255 261 272 276 277 282 286
217 217 218 219 218 218 218 217 218 219 220 220 220 220 220 220 220 221 221 221 221 221 221 221 221 221 222 221 222 222 223 224 225 225 226 227 228 228 228 228 228 228 229 229 229 228 227 225 225 225 224 223 224 225 227 229 227 224 224 223 222 222 220 214 210 215 220 224 228 233 237 239 241 239 237 238 240 243 247 248 252 259 258 259 267 275
217 217 218 220 219 218 218 218 218 219 220 220 220 220 220 220 220 221 221 222 222 221 221 222 222 222 222 222 222 222 223 224 225 226 226 227 228 229 230 229 229 229 230 231 231 232 231 229 226 226 226 225 224 225 227 229 228 225 223 222 221 222 223 222 220 222 225 228 230 232 233 232 235 236 235 237 238 239 240 239 237 241 246 253 258 262
217 216 218 220 220 219 218 219 219 219 220 221 221 221 220 220 220 221 222 222 222 222 222 222 223 223 223 223 223 223 224 225 226 226 226 227 228 229 230 231 231 231 231 231 232 233 233 232 230 228 228 228 226 225 227 230 230 227 225 223 222 222 224 225 224 224 226 229 232 233 229 222 222 228 231 232 234 236 239 239 236 235 243 252 256 256
218 217 217 219 221 220 219 219 219 220 220 220 221 222 221 220 220 221 222 222 223 223 223 223 223 224 224 224 225 224 225 225 226 227 227 227 228 228 229 230 231 231 231 232 232 233 233 234 233 231 229 229 228 227 226 229 231 230 229 227 225 224 225 227 227 226 226 228 232 235 232 225 222 228 234 237 240 243 243 241 238 237 244 253 256 252
218 218 217 218 220 221 220 219 219 219 220 220 221 222 222 221 221 221 221 222 223 223 223 224 224 224 224 225 226 226 226 227 228 228 228 228 229 229 229 229 230 230 231 232 232 233 233 234 234 234 232 230 229 228 227 228 230 232 232 231 229 227 226 227 229 230 228 228 230 234 236 234 232 236 241 245 248 249 246 241 236 234 237 243 247 246
219 219 218 218 220 221 221 220 218 219 220 220 221 222 223 222 222 221 221 222 223 223 224 224 225 225 225 226 227 227 228 228 229 230 230 230 230 230 230 230 230 230 230 231 232 233 234 234 234 235 234 233 231 230 229 229 230 232 233 233 232 231 230 229 230 231 231 230 230 233 236 238 240 242 246 249 251 251 247 242 237 234 235 237 242 247
219 219 219 219 220 222 223 222 219 219 220 221 221 222 223 223 223 222 222 222 223 223 224 225 225 226 226 226 227 228 229 229 230 231 231 231 231 231 231 230 230 230 231 231 232 233 233 234 234 235 235 235 234 232 232 232 232 233 235 235 234 234 234 233 231 232 233 234 234 235 237 240 243 246 248 250 251 250 249 247 244 243 243 245 249 253
220 220 220 221 221 222 223 223 221 220 220 221 221 222 223 224 224 223 223 223 223 223 224 225 225 226 226 226 227 228 228 229 230 231 232 233 233 233 232 232 231 232 232 232 232 232 233 234 234 235 235 236 236 235 234 234 235 236 237 237 237 236 237 237 235 234 235 236 237 237 239 241 244 246 248 250 251 251 251 251 250 249 250 251 253 255
221 221 221 221 222 223 224 224 223 222 221 221 222 222 222 224 225 224 224 223 223 223 224 225 225 226 226 226 227 228 228 229 230 231 232 233 234 234 234 233 233 233 233 233 233 233 233 234 234 235 235 236 237 237 236 236 236 237 238 238 239 239 239 239 238 237 236 237 239 239 240 242 244 246 247 250 252 253 253 253 253 253 253 254 255 256
223 223 223 223 223 224 225 225 225 224 223 222 223 223 223 224 225 225 225 224 224 224 224 225 225 226 226 226 226 227 227 227 228 229 231 231 232 233 234 234 234 234 233 233 234 234 234 234 235 235 235 236 236 237 237 238 237 238 238 238 239 240 240 240 240 239 238 238 239 241 242 243 245 246 247 249 251 253 254 254 255 254 255 255 256 256
222 223 224 224 224 225 226 226 226 226 225 224 224 224 224 224 225 226 226 225 225 224 224 225 225 226 226 226 226 228 228 227 227 228 230 231 231 232 233 234 235 235 235 234 235 235 235 235 235 236 236 236 236 236 237 238 238 238 238 239 239 240 241 241 241 240 239 239 240 242 244 245 246 247 248 248 249 251 253 254 255 255 255 256 256 256
223 223 224 225 225 226 226 227 227 227 227 226 225 225 225 225 225 226 227 227 227 226 225 225 225 225 226 226 226 228 229 229 228 229 231 232 232 232 233 235 236 236 236 236 236 236 236 236 236 236 236 236 236 237 237 238 238 239 239 240 240 241 242 242 242 242 242 242 242 243 244 246 247 248 249 249 249 250 251 252 254 254 255 255 255 255
226 225 225 226 226 226 227 227 228 228 228 228 228 227 226 226 226 226 227 228 228 228 227 226 225 225 226 227 227 228 230 230 231 231 232 234 234 234 234 235 236 237 238 238 237 237 236 236 237 237 237 237 237 237 238 238 239 239 240 240 241 241 242 243 243 243 243 244 244 245 246 246 247 248 249 250 250 251 251 252 253 253 254 254 254 254
229 228 228 228 228 228 228 228 229 229 229 229 229 229 228 228 227 227 227 227 228 229 229 229 227 226 225 226 227 229 230 231 232 233 233 234 235 235 235 236 236 237 238 239 239 238 237 237 237 238 238 238 238 238 239 239 239 240 240 241 241 242 242 243 243 244 245 245 245 246 247 247 248 248 249 250 251 251 252 252 253 253 253 253 253 254
230 230 230 230 230 230 230 230 230 230 231 231 231 231 230 230 229 228 228 227 228 229 230 230 230 228 227 226 226 228 229 230 231 231 232 233 235 236 236 237 237 238 239 239 240 240 239 239 239 239 239 240 240 240 240 240 240 240 240 241 241 241 242 242 243 244 245 246 246 247 247 248 249 249 250 250 251 251 252 252 253 253 253 253 253 253
231 231 231 232 232 231 231 231 231 231 231 232 232 232 233 232 231 230 230 229 228 229 229 230 231 230 229 228 227 228 229 230 231 231 232 233 234 235 236 236 237 238 239 239 240 241 241 241 240 240 240 240 240 241 241 240 240 241 241 241 241 242 242 243 243 244 244 245 246 247 248 249 249 250 250 251 251 252 252 252 252 252 253 252 253 252
236 233 232 233 233 233 233 233 232 232 232 232 232 233 234 234 234 233 232 231 230 230 230 230 231 231 232 231 230 229 230 231 232 233 233 233 234 235 236 236 237 237 238 239 240 241 242 242 242 242 241 241 241 241 241 241 241 242 242 242 242 242 242 243 243 244 244 245 246 247 248 249 249 250 251 251 251 251 252 252 252 252 252 252 252 252
247 242 238 236 234 234 234 234 233 233 233 233 233 233 234 234 235 235 234 233 232 231 231 231 231 232 232 233 233 233 232 233 233 233 233 233 234 235 236 237 237 237 238 239 240 241 242 242 243 243 243 242 242 241 242 242 242 242 242 243 243 243 243 243 243 244 244 245 245 246 247 248 249 249 250 251 251 251 252 252 252 253 253 253 252 252
Height
10899 10903 10909 10913 10916 10919 10923 10930 10938 10944 10949 10953 10956 10959 10962 10966 10971 10975 10978 10982 10985 10988 10989 10991 10993 10996 10998 11000 11002 11004 11006 11008 11011 11013 11014 11015 11016 11017 11018 11019 11019 11020 11020 11020 11020 11019 11018 11017 11016 11015 11015 11014 11014 11013 11013 11013 11012 11011 11011 11010 11010 11009 11008 11007 11006 11005 11003 11002 11001 11000 10998 10997 10996 10994 10993 10992 10991 10990 10989 10987 10985 10983 10982 10981 10981 10981
10894 10898 10900 10903 10907 10913 10921 10928 10934 10939 10945 10950 10953 10956 10960 10964 10967 10970 10975 10980 10984 10986 10988 10989 10992 10995 10997 10999 11001 11004 11006 11008 11010 11012 11013 11015 11016 11017 11018 11018 11018 11019 11020 11020 11020 11020 11019 11018 11018 11017 11016 11015 11015 11015 11015 11014 11014 11013 11012 11011 11011 11010 11010 11009 11008 11007 11006 11005 11004 11002 11001 11000 10999 10998 10997 10996 10995 10993 10992 10990 10988 10986 10986 10986 10986 10985
10888 10890 10890 10895 10902 10911 10919 10925 10931 10936 10941 10946 10950 10954 10957 10960 10964 10968 10972 10976 10980 10983 10986 10988 10990 10993 10996 10999 11001 11002 11004 11006 11009 11011 11012 11014 11015 11016 11017 11018 11018 11018 11019 11019 11020 11021 11020 11019 11019 11018 11017 11017 11016 11016 11016 11016 11015 11015 11014 11013 11012 11011 11011 11010 11010 11009 11008 11007 11006 11004 11003 11002 11001 11000 10999 10999 10998 10996 10995 10993 10991 10990 10990 10990 10990 10990
10878 10878 10880 10889 10899 10908 10915 10921 10926 10931 10936 10942 10946 10949 10952 10956 10961 10965 10968 10972 10976 10980 10983 10986 10988 10991 10994 10998 10999 11000 11002 11005 11007 11009 11011 11013 11013 11014 11016 11017 11017 11018 11018 11019 11020 11021 11021 11020 11019 11019 11019 11018 11018 11018 11018 11017 11017 11017 11016 11015 11014 11013 11012 11012 11012 11011 11011 11009 11008 11006 11005 11005 11004 11002 11002 11001 11001 10999 10997 10996 10995 10994 10994 10994 10994 10994
10867 10868 10876 10886 10895 10902 10908 10915 10921 10926 10930 10934 10938 10943 10948 10953 10957 10960 10964 10969 10973 10978 10981 10983 10986 10989 10992 10995 10998 11000 11002 11004 11005 11008 11010 11011 11012 11013 11014 11015 11016 11017 11017 11018 11019 11020 11020 11020 11020 11020 11020 11019 11019 11019 11019 11019 11019 11019 11018 11017 11016 11014 11014 11013 11013 11013 11012 11011 11010 11009 11008 11007 11006 11005 11004 11004 11003 11002 11000 10998 10997 10997 10996 10997 10997 10996
10858 10866 10876 10883 10889 10896 10903 10910 10915 10918 10923 10927 10931 10938 10944 10949 10953 10956 10960 10965 10971 10975 10978 10981 10984 10986 10989 10993 10996 10999 11001 11001 11003 11006 11008 11010 11011 11011 11012 11014 11015 11016 11016 11017 11018 11019 11020 11020 11020 11020 11020 11020 11020 11020 11019 11019 11020 11020 11020 11019 11018 11016 11015 11015 11015 11014 11014 11013 11012 11011 11010 11009 11008 11007 11007 11006 11005 11004 11002 11001 11000 10999 10998 10998 10998 10998
10855 10864 10871 10876 10883 10889 10897 10905 10909 10913 10917 10921 10925 10933 10939 10942 10946 10951 10956 10962 10967 10971 10975 10979 10982 10984 10987 10990 10993 10996 10999 11000 11002 11005 11006 11008 11009 11010 11011 11012 11013 11014 11015 11016 11017 11018 11019 11020 11020 11020 11021 11021 11020 11020 11020 11020 11020 11021 11021 11021 11020 11019 11018 11017 11016 11016 11016 11015 11014 11014 11013 11012 11011 11010 11009 11008 11008 11006 11004 11003 11002 11001 11000 11000 11000 11000
10850 10857 10863 10869 10876 10883 10893 10899 10903 10907 10911 10914 10920 10927 10931 10933 10938 10947 10954 10959 10963 10967 10973 10976 10978 10981 10984 10987 10991 10994 10997 10998 11000 11003 11005 11006 11007 11008 11009 11010 11011 11012 11013 11015 11016 11018 11019 11020 11020 11020 11021 11021 11021 11021 11021 11020 11020 11021 11021 11022 11021 11021 11020 11019 11018 11018 11018 11017 11017 11016 11015 11014 11014 11013 11012 11011 11010 11008 11006 11005 11005 11004 11003 11003 11003 11002
10842 10849 10855 10861 10868 10877 10886 10889 10893 10898 10901 10905 10913 10918 10922 10927 10936 10946 10951 10955 10959 10964 10969 10971 10973 10977 10980 10984 10988 10991 10994 10996 10998 11000 11002 11004 11005 11006 11007 11008 11009 11011 11012 11013 11015 11017 11018 11019 11020 11021 11021 11022 11022 11021 11021 11021 11021 11021 11022 11022 11022 11022 11022 11021 11020 11020 11020 11020 11019 11019 11018 11017 11016 11015 11014 11013 11012 11010 11009 11008 11008 11007 11007 11006 11006 11005
10836 10842 10848 10856 10863 10870 10873 10876 10884 10889 10891 10898 10906 10913 10920 10928 10937 10945 10949 10952 10956 10960 10965 10968 10971 10974 10978 10982 10985 10989 10993 10995 10996 10998 11000 11002 11003 11004 11005 11006 11008 11010 11011 11012 11014 11016 11017 11018 11020 11021 11021 11022 11022 11022 11022 11021 11021 11021 11022 11022 11022 11022 11022 11022 11022 11022 11022 11022 11021 11021 11020 11019 11018 11017 11016 11015 11014 11013 11012 11011 11011 11011 11010 11010 11009 11009
10826 10833 10844 10852 10857 10859 10861 10868 10877 10878 10882 10893 10904 10913 10920 10927 10935 10942 10947 10950 10953 10957 10961 10965 10969 10972 10975 10979 10983 10986 10989 10992 10994 10995 10997 11000 11001 11002 11003 11004 11007 11009 11011 11012 11013 11015 11017 11018 11020 11021 11021 11022 11022 11022 11022 11022 11022 11022 11022 11022 11023 11022 11022 11022 11022 11022 11022 11022 11022 11022 11021 11020 11019 11019 11018 11017 11016 11016 11015 11015 11014 11014 11013 11013 11012 11012
10817 10827 10837 10842 10844 10848 10854 10864 10870 10872 10880 10893 10903 10910 10916 10921 10929 10935 10940 10943 10946 10951 10955 10959 10964 10968 10972 10976 10980 10983 10986 10989 10992 10993 10995 10996 10997 10998 11001 11003 11006 11009 11011 11012 11013 11015 11017 11019 11020 11021 11021 11022 11022 11022 11023 11022 11022 11022 11022 11022 11023 11023 11022 11022 11022 11021 11021 11021 11022 11022 11021 11021 11020 11020 11020 11019 11019 11019 11018 11018 11017 11017 11016 11016 11015 11015
10814 10823 10827 10830 10834 10839 10847 10856 10863 10870 10882 10892 10900 10906 10912 10916 10921 10925 10927 10928 10932 10940 10947 10953 10958 10964 10968 10973 10977 10980 10984 10986 10989 10991 10992 10992 10994 10996 10999 11001 11004 11005 11008 11010 11012 11014 11016 11018 11019 11020 11021 11021 11022 11022 11023 11023 11022 11022 11022 11023 11023 11023 11023 11022 11022 11021 11021 11021 11021 11022 11022 11022 11022 11022 11022 11021 11021 11021 11021 11021 11020 11020 11019 11018 11018 11018
10810 10816 10819 10824 10830 10835 10841 10849 10858 10869 10881 10890 10897 10903 10907 10910 10915 10918 10919 10919 10926 10934 10942 10948 10954 10960 10965 10969 10973 10976 10980 10983 10986 10989 10990 10991 10993 10995 10996 10998 11000 11002 11005 11008 11010 11012 11014 11016 11017 11018 11019 11020 11021 11022 11022 11023 11023 11023 11023 11023 11023 11023 11024 11023 11023 11022 11022 11022 11022 11022 11023 11023 11023 11024 11023 11023 11023 11023 11023 11023 11023 11022 11021 11021 11021 11020
10804 10810 10815 10822 10827 10831 10836 10843 10853 10864 10874 10882 10888 10894 10898 10902 10906 10910 10912 10915 10922 10929 10936 10944 10951 10955 10959 10964 10969 10973 10976 10980 10983 10986 10989 10990 10991 10993 10994 10996 10999 11000 11002 11006 11009 11010 11012 11013 11015 11016 11018 11019 11020 11021 11022 11022 11023 11023 11023 11023 11023 11023 11024 11024 11023 11023 11023 11023 11023 11023 11024 11024 11025 11025 11025 11025 11025 11025 11025 11025 11024 11024 11024 11023 11023 11022
10800 10805 10811 10817 10822 10825 10831 10838 10847 10857 10865 10871 10878 10886 10892 10895 10898 10902 10904 10908 10915 10922 10931 10940 10945 10949 10954 10961 10965 10969 10973 10978 10981 10982 10984 10986 10988 10990 10992 10994 10996 10998 11000 11004 11007 11009 11010 11012 11014 11016 11018 11019 11019 11020 11021 11022 11022 11023 11023 11023 11023 11022 11023 11023 11024 11024 11024 11023 11024 11024 11024 11025 11026 11026 11026 11026 11026 11026 11026 11026 11026 11026 11025 11025 11024 11024
10793 10798 10805 10811 10815 10819 10823 10830 10840 10850 10859 10867 10874 10880 10884 10888 10892 10895 10898 10904 10914 10923 10931 10937 10940 10945 10952 10957 10961 10965 10970 10974 10977 10978 10980 10982 10985 10988 10990 10991 10993 10995 10997 11001 11004 11007 11009 11011 11013 11016 11017 11018 11019 11019 11020 11021 11021 11022 11023 11023 11022 11022 11023 11023 11024 11024 11024 11024 11024 11025 11025 11026 11027 11027 11027 11028 11028 11028 11027 11027 11027 11027 11026 11026 11025 11025
10784 10790 10797 10802 10806 10810 10816 10824 10835 10846 10856 10863 10867 10870 10874 10879 10883 10888 10893 10902 10913 10920 10927 10932 10935 10941 10948 10952 10956 10962 10966 10970 10973 10975 10977 10980 10983 10985 10987 10989 10990 10992 10995 10998 11001 11004 11007 11010 11012 11014 11015 11016 11017 11018 11018 11019 11020 11021 11022 11022 11023 11023 11023 11023 11023 11024 11025 11025 11025 11026 11026 11026 11027 11028 11028 11028 11029 11029 11028 11028 11028 11027 11027 11027 11026 11026
10778 10783 10788 10793 10797 10802 10809 10819 10830 10840 10850 10856 10858 10861 10866 10871 10875 10882 10889 10899 10908 10915 10920 10924 10929 10937 10943 10948 10953 10958 10962 10963 10965 10969 10973 10977 10981 10983 10985 10986 10987 10989 10992 10994 10996 11000 11005 11008 11010 11012 11013 11014 11015 11015 11016 11017 11018 11019 11020 11021 11022 11023 11023 11023 11023 11024 11024 11025 11026 11026 11027 11027 11028 11028 11029 11029 11029 11029 11029 11029 11028 11028 11028 11028 11027 11027
10771 10777 10781 10785 10790 10796 10803 10812 10823 10832 10841 10848 10850 10855 10861 10863 10866 10874 10883 10892 10901 10908 10912 10916 10923 10931 10938 10944 10950 10955 10956 10957 10961 10967 10973 10976 10978 10980 10983 10985 10987 10988 10990 10991 10994 10999 11004 11006 11008 11010 11011 11012 11013 11013 11014 11015 11017 11018 11018 11019 11020 11021 11022 11022 11023 11023 11024 11025 11026 11027 11027 11028 11028 11028 11029 11029 11029 11029 11029 11029 11029 11028 11028 11028 11028 11028
10765 10770 10773 10779 10786 10791 10796 10804 10814 10823 10831 10836 10841 10848 10853 10854 10859 10870 10878 10886 10894 10900 10905 10911 10918 10925 10932 10939 10946 10949 10950 10954 10960 10967 10972 10976 10977 10977 10980 10984 10986 10989 10990 10991 10993 10998 11002 11004 11006 11009 11010 11011 11011 11011 11012 11014 11016 11017 11017 11017 11018 11019 11020 11021 11022 11023 11023 11024 11026 11027 11028 11028 11028 11028 11029 11029 11029 11030 11030 11030 11029 11029 11028 11028 11028 11028
10757 10762 10767 10774 10779 10782 10787 10795 10805 10813 10819 10825 10831 10838 10841 10845 10854 10866 10874 10881 10889 10895 10900 10906 10911 10917 10927 10935 10940 10942 10945 10950 10958 10965 10971 10974 10974 10973 10975 10980 10985 10989 10989 10989 10992 10995 10998 11001 11005 11008 11009 11008 11009 11010 11011 11013 11014 11014 11015 11015 11017 11018 11019 11020 11022 11023 11023 11023 11024 11026 11027 11028 11028 11028 11028 11028 11029 11029 11030 11030 11030 11030 11029 11029 11028 11028
10749 10755 10762 10767 10770 10773 10780 10788 10797 10805 10811 10816 10822 10828 10832 10840 10850 10860 10868 10875 10882 10887 10892 10898 10903 10912 10923 10931 10934 10936 10939 10945 10954 10963 10968 10970 10969 10966 10969 10975 10983 10988 10988 10988 10990 10993 10995 10998 11002 11006 11006 11006 11008 11009 11010 11011 11011 11011 11012 11013 11015 11017 11018 11019 11020 11021 11022 11023 11024 11025 11025 11026 11026 11027 11027 11027 11028 11028 11029 11030 11030 11030 11030 11030 11029 11029
10742 10748 10754 10758 10761 10766 10772 10780 10788 10796 10802 10805 10811 10819 10828 10838 10847 10855 10862 10867 10872 10879 10885 10891 10898 10908 10918 10924 10926 10929 10932 10939 10948 10956 10959 10960 10959 10958 10962 10969 10978 10985 10986 10985 10986 10990 10993 10996 10999 11002 11003 11003 11004 11006 11007 11008 11009 11010 11012 11012 11014 11015 11016 11018 11019 11020 11021 11023 11023 11023 11023 11024 11025 11026 11027 11027 11027 11027 11028 11029 11029 11030 11030 11030 11030 11030
10734 10741 10745 10749 10752 10758 10764 10771 10779 10786 10791 10795 10802 10813 10824 10835 10843 10850 10855 10858 10863 10871 10878 10886 10894 10903 10910 10915 10919 10921 10925 10933 10941 10946 10947 10948 10949 10951 10957 10965 10971 10974 10976 10977 10980 10986 10991 10994 10997 10998 10997 10997 10999 11002 11004 11007 11009 11010 11010 11009 11011 11013 11014 11015 11017 11018 11019 11020 11021 11021 11021 11022 11025 11027 11028 11027 11026 11026 11026 11027 11028 11029 11030 11030 11030 11030
10727 10733 10738 10741 10745 10751 10758 10765 10773 10779 10785 10790 10798 10809 10819 10828 10835 10841 10846 10852 10858 10865 10873 10881 10889 10896 10902 10907 10912 10915 10920 10926 10931 10934 10937 10939 10942 10945 10951 10958 10961 10963 10967 10970 10976 10983 10990 10994 10994 10993 10992 10992 10994 10997 11001 11006 11009 11008 11006 11006 11008 11010 11010 11011 11014 11015 11016 11017 11018 11018 11020 11022 11024 11026 11026 11026 11025 11025 11025 11025 11026 11027 11028 11029 11029 11030
10718 10724 10730 10734 10738 10744 10751 10759 10766 10772 10779 10785 10794 10804 10813 10820 10827 10835 10841 10847 10854 10860 10867 10874 10882 10890 10896 10901 10905 10909 10914 10919 10922 10924 10926 10930 10935 10938 10943 10949 10953 10957 10962 10967 10973 10981 10989 10991 10988 10986 10986 10984 10985 10990 10996 11003 11007 11006 11004 11006 11007 11007 11007 11009 11012 11013 11014 11014 11015 11017 11019 11021 11021 11022 11023 11024 11024 11024 11024 11024 11024 11025 11026 11027 11027 11028
10707 10714 10721 10726 10732 10738 10745 10752 10758 10763 10770 10777 10787 10796 10804 10811 10819 10827 10832 10838 10845 10853 10860 10868 10875 10883 10889 10892 10896 10900 10905 10909 10912 10914 10917 10921 10927 10931 10936 10941 10946 10951 10956 10962 10969 10977 10983 10983 10980 10980 10979 10975 10976 10983 10991 10997 11000 11001 11003 11005 11006 11005 11006 11008 11010 11011 11011 11011 11012 11014 11017 11018 11019 11019 11020 11021 11022 11023 11023 11022 11022 11022 11023 11024 11025 11026
10698 10704 10712 10718 10724 10731 10737 10744 10749 10755 10762 10769 10778 10787 10795 10803 10811 10818 10823 10829 10836 10843 10851 10860 10867 10874 10878 10881 10886 10891 10895 10898 10902 10905 10908 10913 10918 10924 10929 10935 10940 10944 10949 10955 10962 10968 10972 10972 10972 10973 10972 10968 10970 10977 10984 10989 10994 10997 11000 11001 11002 11002 11003 11006 11007 11008 11008 11007 11008 11012 11015 11016 11016 11016 11017 11018 11019 11020 11020 11020 11020 11019 11020 11021 11023 11024
10690 10696 10703 10710 10716 10722 10730 10736 10742 10748 10755 10761 10769 10779 10788 10796 10803 10809 10815 10820 10827 10835 10843 10852 10859 10864 10869 10873 10877 10883 10887 10891 10894 10898 10902 10906 10911 10916 10921 10927 10931 10935 10941 10946 10952 10958 10961 10963 10965 10966 10966 10964 10966 10971 10976 10982 10987 10992 10996 10997 10998 10998 11000 11002 11003 11004 11006 11005 11006 11010 11013 11014 11014 11014 11014 11014 11015 11015 11016 11017 11017 11016 11016 11018 11019 11021
10682 10689 10695 10701 10708 10714 10722 10729 10735 10741 10747 10754 10762 10770 10779 10787 10793 10800 10807 10812 10820 10828 10835 10842 10848 10854 10861 10866 10871 10877 10881 10884 10886 10890 10894 10898 10902 10907 10912 10917 10921 10927 10932 10938 10943 10948 10952 10956 10958 10960 10961 10961 10962 10965 10968 10974 10981 10987 10991 10993 10994 10993 10994 10997 10999 11001 11003 11004 11006 11008 11011 11013 11013 11012 11011 11011 11011 11011 11012 11013 11012 11011 11011 11013 11016 11018
10676 10682 10688 10694 10700 10706 10713 10721 10727 10732 10739 10746 10753 10760 10768 10776 10783 10790 10797 10803 10810 10817 10823 10830 10838 10844 10851 10856 10861 10866 10869 10872 10875 10879 10884 10887 10891 10897 10901 10906 10912 10917 10923 10928 10933 10938 10943 10948 10951 10953 10954 10956 10957 10959 10962 10967 10974 10981 10985 10988 10988 10986 10987 10993 10997 10998 11001 11004 11006 11006 11007 11008 11008 11008 11008 11008 11008 11009 11009 11009 11007 11006 11006 11008 11011 11015
10670 10675 10680 10686 10692 10698 10705 10712 10718 10724 10730 10736 10741 10748 10758 10766 10772 10779 10786 10793 10799 10805 10812 10820 10827 10832 10837 10842 10848 10853 10856 10859 10862 10867 10872 10875 10879 10886 10890 10895 10901 10907 10912 10918 10923 10928 10934 10938 10942 10944 10946 10949 10951 10953 10956 10960 10967 10974 10978 10981 10982 10980 10982 10987 10991 10993 10997 11001 11003 11001 11001 11002 11002 11003 11004 11005 11005 11006 11005 11004 11003 11003 11006 11009 11012 11014
10663 10668 10672 10676 10683 10690 10697 10703 10709 10713 10717 10723 10731 10740 10749 10757 10763 10768 10774 10781 10788 10795 10802 10810 10816 10821 10826 10831 10836 10841 10845 10848 10850 10855 10862 10866 10870 10876 10881 10886 10891 10897 10902 10907 10912 10918 10923 10928 10932 10934 10937 10941 10944 10947 10950 10954 10960 10967 10971 10974 10975 10976 10978 10981 10984 10987 10990 10994 10994 10993 10994 10996 10997 10998 11000 11001 11002 11002 11001 11001 11003 11005 11009 11013 11016 11018
10655 10661 10665 10668 10674 10682 10688 10694 10699 10703 10707 10715 10724 10733 10740 10747 10753 10758 10763 10770 10777 10785 10793 10800 10806 10811 10815 10820 10825 10830 10835 10838 10840 10846 10854 10859 10863 10868 10873 10878 10883 10889 10894 10898 10903 10907 10912 10917 10921 10924 10928 10933 10937 10941 10944 10947 10953 10959 10964 10967 10969 10971 10973 10975 10977 10979 10982 10984 10985 10985 10988 10991 10992 10993 10996 10998 10999 10999 10998 10999 11003 11007 11010 11014 11017 11018
10647 10653 10659 10661 10667 10674 10680 10685 10690 10694 10701 10710 10717 10722 10729 10737 10743 10749 10754 10761 10768 10775 10783 10789 10795 10800 10805 10810 10816 10822 10826 10827 10829 10837 10846 10851 10855 10860 10865 10870 10875 10880 10885 10889 10893 10896 10899 10904 10910 10915 10920 10925 10930 10935 10938 10941 10945 10951 10957 10961 10964 10965 10967 10968 10970 10972 10974 10976 10977 10978 10982 10986 10987 10987 10990 10993 10996 10998 10997 10997 11000 11004 11007 11009 11011 11013
10639 10645 10652 10655 10659 10665 10670 10675 10680 10686 10694 10701 10705 10710 10718 10726 10733 10738 10744 10750 10757 10765 10773 10779 10785 10792 10798 10803 10808 10813 10816 10818 10821 10828 10835 10841 10845 10849 10853 10858 10863 10868 10873 10877 10881 10884 10887 10892 10898 10905 10910 10916 10921 10927 10931 10935 10938 10943 10948 10952 10956 10959 10961 10962 10964 10965 10967 10969 10970 10971 10975 10979 10980 10981 10983 10987 10991 10994 10995 10995 10997 10999 11000 11002 11004 11007
10632 10638 10644 10648 10650 10654 10658 10664 10670 10676 10683 10689 10694 10699 10707 10715 10722 10730 10735 10740 10748 10756 10763 10769 10776 10783 10789 10794 10800 10804 10808 10812 10816 10821 10827 10832 10835 10838 10842 10846 10850 10855 10860 10864 10867 10872 10876 10881 10887 10893 10900 10907 10912 10918 10923 10927 10930 10934 10938 10943 10947 10951 10954 10955 10957 10958 10960 10962 10964 10965 10968 10971 10973 10975 10977 10980 10983 10987 10990 10992 10993 10995 10995 10997 11000 11003
10625 10630 10636 10640 10643 10646 10649 10654 10662 10669 10674 10681 10686 10691 10697 10704 10712 10720 10725 10731 10739 10748 10754 10761 10768 10774 10780 10786 10791 10795 10800 10806 10811 10815 10819 10821 10823 10826 10830 10834 10837 10840 10844 10849 10854 10859 10865 10871 10877 10883 10890 10897 10903 10909 10914 10919 10923 10926 10930 10934 10938 10942 10945 10948 10950 10952 10953 10955 10957 10959 10961 10963 10966 10968 10971 10973 10976 10980 10983 10986 10989 10990 10991 10992 10994 10996
10618 10623 10628 10633 10636 10639 10642 10648 10655 10662 10667 10672 10678 10683 10688 10693 10700 10709 10716 10723 10732 10739 10745 10752 10758 10763 10769 10775 10781 10787 10793 10799 10804 10806 10808 10808 10809 10811 10815 10818 10822 10825 10830 10835 10842 10848 10855 10861 10868 10874 10880 10886 10893 10899 10904 10910 10914 10918 10921 10925 10928 10931 10935 10939 10942 10945 10946 10948 10949 10951 10953 10955 10958 10961 10964 10966 10969 10972 10975 10978 10982 10984 10985 10985 10986 10988
10611 10615 10620 10625 10629 10632 10635 10640 10648 10655 10659 10664 10668 10673 10678 10684 10690 10698 10707 10715 10723 10729 10734 10740 10746 10751 10757 10766 10774 10779 10784 10788 10792 10794 10795 10795 10795 10796 10801 10806 10810 10814 10819 10824 10831 10839 10846 10852 10858 10864 10870 10876 10882 10888 10894 10899 10904 10908 10912 10915 10918 10921 10925 10929 10933 10936 10938 10939 10941 10943 10945 10947 10950 10953 10956 10958 10960 10963 10966 10969 10972 10975 10977 10978 10979 10981
10604 10608 10613 10617 10621 10625 10628 10633 10640 10647 10651 10655 10659 10664 10670 10676 10680 10687 10696 10705 10713 10719 10723 10729 10734 10740 10750 10762 10768 10770 10773 10777 10780 10782 10783 10781 10780 10783 10788 10794 10798 10803 10807 10813 10820 10829 10837 10843 10849 10855 10860 10866 10871 10877 10882 10888 10893 10897 10901 10904 10907 10911 10914 10918 10923 10926 10928 10930 10932 10934 10936 10939 10941 10944 10947 10949 10951 10953 10957 10960 10963 10966 10968 10970 10971 10973
10598 10602 10606 10610 10614 10618 10621 10626 10632 10637 10641 10646 10651 10656 10662 10667 10671 10677 10686 10693 10701 10707 10712 10718 10725 10731 10742 10752 10753 10752 10757 10762 10765 10766 10764 10761 10763 10769 10774 10778 10784 10790 10796 10803 10811 10819 10827 10834 10840 10844 10849 10855 10860 10865 10870 10875 10880 10884 10888 10892 10896 10899 10903 10908 10912 10915 10918 10921 10923 10925 10927 10930 10933 10935 10938 10940 10942 10944 10947 10951 10954 10957 10959 10962 10963 10966
10592 10595 10599 10603 10607 10611 10614 10619 10624 10628 10632 10637 10642 10647 10653 10658 10662 10668 10675 10681 10687 10695 10701 10709 10715 10721 10729 10736 10737 10737 10741 10744 10746 10746 10743 10742 10749 10757 10762 10766 10773 10779 10787 10795 10802 10809 10816 10822 10828 10833 10838 10843 10849 10854 10858 10862 10865 10870 10875 10880 10884 10888 10892 10896 10900 10904 10907 10910 10913 10916 10918 10921 10924 10927 10930 10932 10934 10936 10939 10942 10945 10948 10951 10953 10955 10958
10586 10589 10592 10595 10599 10603 10607 10611 10615 10619 10624 10628 10633 10638 10643 10649 10654 10659 10665 10670 10676 10682 10689 10697 10704 10709 10715 10721 10724 10726 10729 10732 10735 10736 10735 10737 10744 10751 10754 10759 10765 10771 10777 10785 10792 10798 10803 10808 10813 10819 10825 10831 10836 10841 10844 10848 10852 10858 10863 10869 10873 10877 10881 10884 10888 10892 10895 10899 10902 10905 10908 10911 10914 10918 10921 10923 10925 10927 10930 10933 10937 10939 10942 10944 10946 10949
10581 10583 10586 10589 10592 10595 10598 10602 10606 10610 10615 10619 10624 10629 10634 10639 10644 10650 10656 10661 10666 10671 10676 10683 10691 10697 10703 10708 10712 10716 10720 10725 10728 10731 10731 10733 10737 10742 10747 10752 10756 10760 10766 10772 10778 10785 10790 10795 10800 10806 10812 10818 10823 10827 10831 10836 10842 10848 10853 10858 10862 10866 10869 10872 10876 10879 10883 10886 10889 10893 10897 10900 10903 10907 10910 10912 10914 10917 10920 10923 10927 10930 10933 10935 10936 10939
10576 10578 10581 10584 10587 10589 10592 10595 10599 10602 10606 10610 10615 10619 10623 10628 10633 10640 10646 10651 10655 10659 10664 10669 10677 10685 10692 10697 10702 10707 10712 10716 10720 10722 10723 10725 10727 10732 10738 10743 10746 10749 10753 10757 10763 10770 10777 10784 10790 10795 10800 10806 10810 10815 10820 10826 10832 10837 10841 10846 10850 10853 10856 10860 10863 10866 10869 10873 10876 10880 10884 10888 10892 10896 10899 10901 10903 10906 10910 10913 10916 10919 10922 10925 10926 10928
10570 10573 10576 10578 10580 10583 10586 10588 10592 10595 10599 10602 10606 10609 10613 10617 10622 10628 10634 10639 10644 10648 10652 10657 10664 10672 10679 10684 10689 10693 10695 10697 10700 10703 10706 10711 10716 10722 10727 10731 10734 10737 10740 10744 10750 10756 10764 10772 10779 10785 10789 10793 10798 10803 10809 10815 10820 10825 10828 10832 10836 10840 10843 10847 10850 10853 10857 10860 10864 10868 10872 10876 10880 10884 10887 10890 10893 10895 10898 10902 10905 10908 10911 10914 10916 10917
10565 10568 10570 10572 10574 10576 10579 10581 10584 10587 10591 10594 10598 10601 10604 10608 10613 10617 10623 10629 10633 10637 10641 10645 10651 10657 10664 10670 10677 10679 10680 10681 10684 10689 10695 10702 10707 10710 10714 10717 10720 10723 10728 10733 10739 10746 10753 10760 10767 10772 10776 10780 10785 10790 10796 10802 10807 10811 10815 10819 10822 10826 10830 10834 10838 10842 10845 10848 10852 10856 10860 10864 10867 10870 10874 10878 10881 10883 10886 10889 10892 10895 10898 10902 10904 10906
10561 10563 10565 10566 10568 10570 10572 10574 10577 10580 10583 10586 10588 10591 10594 10598 10602 10606 10612 10618 10623 10628 10632 10636 10641 10647 10652 10657 10663 10667 10669 10671 10675 10681 10688 10693 10695 10696 10699 10703 10707 10712 10718 10724 10730 10736 10742 10747 10752 10756 10760 10766 10771 10776 10782 10788 10793 10797 10801 10805 10809 10813 10817 10821 10825 10829 10833 10836 10839 10843 10847 10851 10854 10857 10860 10864 10867 10870 10873 10875 10878 10881 10885 10889 10892 10894
10556 10558 10559 10560 10562 10563 10565 10566 10569 10572 10575 10577 10580 10582 10585 10588 10591 10595 10599 10604 10609 10615 10621 10626 10632 10637 10642 10646 10650 10654 10656 10659 10663 10669 10675 10679 10682 10683 10686 10690 10695 10701 10707 10714 10720 10725 10729 10732 10736 10739 10744 10750 10756 10763 10769 10775 10779 10783 10787 10790 10794 10799 10803 10807 10812 10816 10819 10823 10827 10831 10834 10838 10841 10843 10846 10849 10853 10857 10860 10862 10864 10866 10870 10875 10880 10883